www.pogodaiklimat.ru

Погода и климат >> Архив погоды >> Малайзия >> Miri


ПОГОДА в Miri

  • Прогноз погоды в Miri
  • Монитор погоды в Miri
  • Климат города

АРХИВ ПОГОДЫ в Miri

Время (UTC), дата Ветер
(напр.,м/с)
 
Видим.   Явления Облачность Т
(С)
Тd
(С)
f
(%)
Тe
(С)
Тes
(С)
Комфортность P
(гПа)
Po
(гПа)
Тmin
(С)
Tmax
(С)
R
(мм)
R24
(мм)
S
(см)
03 6.11 З 4 30 км 9/4 420 м
[Cu hum Ac trans Ci fib]
+29.6 +24.7 75 +42 +46 опасность
перегрева
1008.7 1006.8
06 6.11 З 5 30 км 9/4 420 м
[Cb cap Ac trans Ci fib]
+30.6 +25.4 74 +45 +48 опасность
перегрева
1005.6 1003.7
09 6.11 З 3 15 км гроза без осадков 9/4 420 м
[Cb cap Ac trans Ci fib]
+28.9 +25.1 80 +42 +42 опасность
перегрева
1005.8 1003.9
12 6.11 З 2 12 км слабый ливневой дождь, в посл. час гроза 9/5 420 м
[Cb cap As op]
+27.3 +25.6 90 +40 +40 очень
душно
1008.3 1006.4 +31.4 5
15 6.11 ЮВ 2 15 км в посл. час дождь 9/4 420 м
[Sc Ac As]
+25.4 +25.0 98 +36 +36 очень
душно
1009.8 1007.9
18 6.11 ЮВ 1 15 км 9/4 420 м
[Sc Ac As Ci fib]
+24.9 +24.5 98 +35 +35 очень
душно
1007.6 1005.7 22
21 6.11 В 1 15 км 9/3 420 м
[Sc Ac trans Ci fib]
+24.0 +23.9 99 +33 +33 очень
душно
1008.2 1006.3
00 7.11 В 2 25 км 9/5 240 м
[Cb cap Ac cuf Ci fib]
+26.1 +25.2 95 +38 +39 очень
душно
1010.2 1008.3 +23.8 28
03 7.11 З 3 20 км 9/5 420 м
[Cu med, cong Ac lent Ci fib]
+29.5 +26.1 82 +45 +49 опасность
перегрева
1010.4 1008.5
06 7.11 З 4 25 км 9/5 450 м
[Cb cap Ac trans Ci fib]
+29.9 +25.0 75 +43 +46 опасность
перегрева
1008.0 1006.1
09 7.11 СЗ 4 15 км осадки на расстоянии 9/6 450 м
[Cb cap Ac As]
+28.7 +25.4 82 +42 +42 опасность
перегрева
1007.1 1005.2
12 7.11 СЗ 2 12 км слабый дождь 10/5 420 м
[Sc As op]
+27.1 +25.4 90 +39 +39 очень
душно
1008.7 1006.8 +30.6 2
15 7.11 Ю 1 8000 м слабый дождь 9/5 420 м
[Sc As op]
+25.2 +24.8 98 +36 +36 очень
душно
1010.3 1008.4
18 7.11 СВ 2 12 км слабый дождь 10/5 420 м
[Sc As op]
+24.6 +24.1 97 +34 +34 очень
душно
1008.6 1006.7 10
21 7.11 ЮВ 1 8000 м дымка 9/4 30 м
[Sc Ac As Ci fib]
+24.3 +24.2 99 +33 +33 очень
душно
1007.8 1005.9
00 8.11 ЮВ 2 25 км {дождь} 9/4 150 м
[Cu med, cong Ac trans Ci fib]
+26.5 +25.5 94 +39 +40 очень
душно
1009.6 1007.7 +24.1 11
03 8.11 З 2 30 км 9/5 480 м
[Cu med, cong Ac trans Ci fib]
+29.6 +25.8 80 +44 +49 опасность
перегрева
1010.2 1008.3
06 8.11 З 4 30 км 9/5 450 м
[Cb cap Ac trans Ci ing]
+30.4 +25.8 76 +45 +48 опасность
перегрева
1007.4 1005.5
09 8.11 СЗ 3 30 км 9/4 480 м
[Cu med, cong Ac lent Ci fib]
+29.4 +26.0 82 +44 +45 опасность
перегрева
1006.6 1004.7
12 8.11 С 1 15 км {ливн. осадки} 9/4 480 м
[Sc Ac trans Ci fib]
+27.6 +26.0 91 +41 +41 опасность
перегрева
1008.2 1006.3 +31.2 0.2
15 8.11 В 2 15 км зарница 9/5 450 м
[Cb cap Ac trans Ci fib]
+26.1 +25.5 97 +38 +38 очень
душно
1009.5 1007.6
18 8.11 Ю 2 15 км 9/4 480 м
[Sc Ac trans Ci fib]
+25.2 +24.9 98 +36 +36 очень
душно
1007.6 1005.7
21 8.11 Ю 2 15 км 9/4 420 м
[Sc Ac As]
+24.7 +24.6 99 +35 +35 очень
душно
1006.9 1005.0
00 9.11 Ю 2 30 км 9/3 360 м
[Cu hum Ac lent Ci fib]
+28.1 +25.8 87 +42 +43 опасность
перегрева
1008.6 1006.7 +24.7 0.2
03 9.11 СЗ 1 30 км 9/4 480 м
[Cu hum Ac lent Ci fib]
+30.5 +26.2 78 +46 +53 опасность
перегрева
1008.6 1006.7
06 9.11 СЗ 3 30 км 8/4 480 м
[Cu hum Ac trans Ci fib]
+31.6 +26.3 74 +48 +53 опасность
перегрева
1005.9 1004.0
09 9.11 З 3 30 км 9/4 480 м
[Cu hum Ac trans Ci fib]
+30.2 +25.8 77 +45 +45 опасность
перегрева
1005.1 1003.2
12 9.11 СЗ 2 15 км 9/4 480 м
[Sc Ac As Ci fib]
+28.7 +26.2 86 +43 +43 опасность
перегрева
1007.1 1005.2 +32.0
15 9.11 В 1 15 км 9/4 480 м
[Sc Ac As Ci fib]
+27.5 +26.1 92 +41 +41 опасность
перегрева
1008.0 1006.1
18 9.11 СВ 2 10 км слабый дождь 9/5 480 м
[Sc Ac As]
+25.0 +24.7 98 +35 +35 очень
душно
1006.9 1005.0 2
21 9.11 Ю 1 15 км 9/4 480 м
[Sc Ac As Ci fib]
+25.0 +24.9 99 +35 +35 очень
душно
1006.8 1004.9
00 10.11 Ю 3 30 км {дождь} 9/1 420 м
[Cb cap Ac As Ci fib]
+26.4 +25.4 94 +38 +40 очень
душно
1009.6 1007.7 +25.0 2
03 10.11 ЮЗ 3 30 км 9/3 480 м
[Cu hum Ac As Ci fib]
+29.6 +25.2 77 +43 +49 опасность
перегрева
1010.2 1008.3
06 10.11 З 3 30 км 9/5 450 м
[Cb cap Ac trans Ci fib]
+31.5 +25.7 71 +46 +50 опасность
перегрева
1007.5 1005.6
09 10.11 З 3 30 км 9/5 450 м
[Cb cap Ac trans Ci fib]
+29.4 +24.8 76 +42 +42 опасность
перегрева
1006.7 1004.8
12 10.11 З 2 15 км зарница 9/4 450 м
[Cb cap Ac As]
+28.4 +25.1 82 +41 +41 опасность
перегрева
1009.2 1007.3 +31.9
15 10.11 штиль 0 15 км 9/4 480 м
[Sc Ac As]
+26.5 +25.6 95 +39 +39 очень
душно
1010.1 1008.2
18 10.11 Ю 2 3000 м сильный дождь 9/5 420 м
[Sc Ac As]
+24.9 +24.6 98 +35 +35 очень
душно
1008.9 1007.0 13
21 10.11 ЮВ 2 15 км {дождь} 9/5 420 м
[Sc Ac As]
+24.7 +24.2 97 +34 +34 очень
душно
1009.2 1007.3
00 11.11 Ю 1 25 км в посл. час дождь 9/5 150 м
[Sc Ac As]
+25.3 +25.0 98 +36 +37 очень
душно
1010.8 1008.9 +24.1 42
03 11.11 З 2 30 км 9/4 480 м
[Cu hum Ac trans Ci fib]
+28.1 +24.6 81 +40 +46 очень
душно
1011.1 1009.2
06 11.11 З 3 15 км осадки на расстоянии 9/5 450 м
[Cb cap Ac cuf Ci ing]
+30.0 +25.0 75 +43 +47 опасность
перегрева
1008.1 1006.2
09 11.11 ЮЗ 3 15 км осадки на расстоянии 9/5 450 м
[Cb cap Ac cuf Ci ing]
+29.3 +24.5 75 +41 +42 опасность
перегрева
1007.5 1005.6
12 11.11 Ю 1 15 км 9/3 480 м
[Sc Ac trans Ci fib]
+26.4 +25.0 92 +38 +38 очень
душно
1009.1 1007.2 +30.9
15 11.11 Ю 2 15 км 9/3 480 м
[Sc Ac As]
+25.4 +24.9 97 +36 +36 очень
душно
1009.8 1007.9
18 11.11 Ю 1 15 км 9/3 480 м
[Sc Ac trans Ci fib]
+24.5 +24.1 98 +34 +34 очень
душно
1008.4 1006.5
21 11.11 Ю 1 15 км 9/4 480 м
[Sc Ac As]
+23.7 +23.6 99 +32 +32 очень
душно
1008.3 1006.4
00 12.11 Ю 3 25 км 9/4 420 м
[Cb cap Ac lent Ci fib]
+27.6 +24.5 83 +39 +40 очень
душно
1009.7 1007.8 +23.6
03 12.11 З 3 30 км 9/5 450 м
[Cb cap Ac trans Ci fib]
+31.2 +25.8 73 +46 +50 опасность
перегрева
1009.8 1007.9
06 12.11 З 4 25 км 9/4 450 м
[Cb cap Ac trans Ci fib]
+30.7 +24.8 71 +44 +48 опасность
перегрева
1006.9 1005.0
09 12.11 З 3 30 км 9/3 480 м
[Cu hum Ac trans Ci fib]
+30.1 +25.1 75 +44 +44 опасность
перегрева
1006.6 1004.7
12 12.11 З 3 15 км 9/4 480 м
[Sc Ac As Ci fib]
+28.7 +24.7 79 +41 +41 опасность
перегрева
1008.6 1006.7 +32.0
15 12.11 З 1 15 км 9/5 480 м
[Sc Ac As Ci fib]
+26.9 +25.0 89 +39 +39 очень
душно
1009.4 1007.5
18 12.11 Ю 2 15 км 9/4 480 м
[Sc Ac As Ci fib]
+25.0 +24.2 95 +34 +34 очень
душно
1008.3 1006.4
21 12.11 Ю 2 15 км 9/4 480 м
[Sc Ac As Ci fib]
+24.6 +23.8 95 +33 +33 очень
душно
1006.9 1005.0
00 13.11 ЮВ 5 30 км 9/1 420 м
[Cu hum Ac trans Ci fib]
+27.2 +24.6 86 +39 +39 очень
душно
1008.4 1006.5 +24.5

 

Местоположение метеостанции Miri (Малайзия): широта 4.33 долгота 113.98 высота над уровнем моря 18 м.

В архиве по умолчанию представлена погода в Miri за последнюю неделю. Архивные данные за месяц целиком и за предыдущие месяцы, начиная с января 2011 года, Вы можете получить, выбрав интересующий диапазон дат из раскрывающегося списка и нажав кнопку "Ввод!".


*Определитесь, кто Вы:
робот инопланетянин человек

Внимание! Время в таблицах - всемирное. Для получения местного времени необходимо прибавить поправку, которая в Miri равна 8 ч.

Смотрите также архив погоды в соседних городах и на ближайших метеорологических станциях:

Погода в Brunei Airport (Бруней) (125 км)
Погода в Bintulu (Малайзия) (164 км)
Погода в Labuan (Малайзия) (177 км)
Погода в Longbawan (Индонезия) (200 км)
Погода в Kota Kinabalu (Малайзия) (290 км)
Погода в Sibu (Малайзия) (326 км)
Погода в Putussibau (Индонезия) (405 км)
Погода в Tanjung Selor (Индонезия) (407 км)
Погода в Tarakan (Индонезия) (413 км)
Погода в Tawau (Малайзия) (433 км)

Пояснения к столбцам:

Ветер - указаны скорость ветра в м/с - средняя за 10 мин, порывы в срок и между сроками (в фигурных скобках) и направление, откуда дует ветер: С - северный, СВ - северо-восточный, В - восточный, ЮВ - юго-восточный, Ю - южный, ЮЗ - юго-западный, З - западный, СЗ - северо-западный.
Видимость - горизонтальная дальность видимости в метрах или километрах. При видимости от 1 до 10 км при отсутствии осадков обычно наблюдается дымка, при ухудшении видимости до 1 км и менее - туман. В сухую погоду видимость может ухудшаться дымом, пылью или мглою.
Явления - указаны атмосферные явления, наблюдавшиеся в срок или в последний час перед сроком; фигурными скобками обозначены явления, наблюдавшиеся между сроками (за 1-3 часа до срока); квадратными скобками обозначены град или гололедные отложения с указанием их диаметра в мм.
Облачность - указаны через наклонную черту общая и нижняя облачность в баллах и высота нижней границы облаков в метрах; квадратными скобками обозначены формы облаков: Ci - перистые, Cs - перисто-слоистые, Cc - перисто-кучевые, Ac - высококучевые, As - высокослоистые, Sc - слоисто-кучевые, Ns - слоисто-дождевые, Cu - кучевые, Cb - кучево-дождевые. Подробнее классификацию облаков см. в Атласе облаков (PDF).
T - Температура воздуха - температура, измеренная на высоте 2 м над землей.
Td - Температура точки росы - температура, при понижении до которой содержащийся в воздухе водяной пар достигнет насыщения.
f - Относительная влажность воздуха - влажноcть воздуха, измеренная на высоте 2 м над землей.
Te - Эффективная температура - температура, которую ощущает одетый по сезону человек в тени. Характеристика душности погоды. При расчете учитывается влияние влажности воздуха и скорости ветра на теплоощущения человека.
Tes - Эффективная температура на солнце - температура, которую ощущает человек, с поправкой на солнечный нагрев. Характеристика знойности погоды. Зависит от высоты солнца над горизонтом, облачности и скорости ветра. Ночью, в пасмурную погоду, а также при ветре 12 м/с и более поправка равна нулю.
P - Атмосферное давление - приведенное к уровню моря атмосферное давление.
Po - Атмосферное давление - измеренное на уровне метеостанции атмосферное давление.
Tmin - Минимальная температура - минимум температуры воздуха на высоте 2 м над землей.
Tmax - Максимальная температура - максимум температуры воздуха на высоте 2 м над землей.
R - Количество осадков - Количество выпавших осадков за период времени, мм. При наведении курсора мыши на число - период времени, за который выпало указанное количество осадков.
R24 - Количество осадков - Количество выпавших осадков за 24 часа, мм.
S - Снежный покров - Высота снежного покрова, см. При наведении курсора мыши на число - состояние снежного покрова и степень покрытия местности в баллах.